Location: Ostrava
(49.8330°N, 18.2830°E)
Time: 11:20:43
(UTC+02:00)

ISS - Pass Details

Date: 21 May 2021
Orbit: 417 x 422 km, 51.6° (Epoch: 13 June)

Event Time Altitude Azimuth Distance (km) Brightness Sun altitude
Rises 22:08:30 0° 273° (W) 2,364 0.7 -11.9°
Reaches altitude 10° 22:10:37 10° 277° (W) 1,501 -0.3 -12.1°
Maximum altitude 22:13:58 61° 358° (N) 481 -3.2 -12.4°
Drops below altitude 10° 22:17:19 10° 81° (E) 1,504 -1.2 -12.7°
Enters shadow 22:18:23 - 83° (E) 1,937 -0.7 -12.8°
